Погода в Базе

Россия / Вологодская область     60°36′25″N   40°08′56″E
темп.,
°C
ветер,
м/с
пор.,
м/с
влажн.,
%
обл.,
%
осадки,
мм/ч
давл.,
гПа
погр.,
м
4 июля, пн
пн400:00+14всв11810 0.0 101710
03:00+12в11861 0.0 101710
06:00+17юв01704 0.0 1017100
09:00+23вюв12495 0.0 1017781
12:00+27ю11372 0.0 10161763
15:00+29вюв12325 0.0 10152298
18:00+27вюв22390 0.0 1014731
21:00+20ююв11630 0.0 101411
5 июля, вт
вт500:00+16юз11850 0.0 101511
03:00+15ю26944 0.0 1015102
06:00+19ю25765 0.0 1015205
09:00+24ююз355530 0.0 1014782
12:00+28ююз354436 0.0 10132177
15:00+24ююз2659100 0.0 1012212
18:00+26ю475332 0.1 1011992
21:00+19зсз369242 1.0 1012138
6 июля, ср
ср600:00+16юв119899 4.4 101230
03:00+16ююз239812 4.4 101161
06:00+18зюз2495100 0.0 1011165
09:00+22з23700 0.0 1011663
12:00+26зсз34414 0.1 10111892
15:00+26з3341100 0.1 10112077
18:00+23з2557100 0.0 1011444
21:00+18з247251 0.0 101172
7 июля, чт
чт700:00+15св228153 0.0 101129
03:00+15всв2570100 0.0 1010108
06:00+13с2499100 9.1 1009161
09:00+13ссз2399100 12.9 1009201
12:00+13сз2598100 0.3 1011441
15:00+18сз3569100 0.3 1013982
18:00+19зсз256199 0.0 10141178
21:00+16ю228258 0.0 101416
8 июля, пт
пт800:00+14ю258789 0.0 1015103
03:00+15ю31084100 0.1 1015286
06:00+15ююз298792 0.1 1015287
09:00+21юз48466 0.1 10151560
12:00+24юз583727 0.0 10142720
15:00+22юз37438 0.0 10141446
18:00+23зсз2542100 0.0 10141108
21:00+17с116651 0.0 101411